| time (UTC) | temp F | wind direction | speed knots | gust knots | rain 1hr in | rain 24hr in | rain mn in | humidity % | barometer mb |
| 20260505184536 | 54 | 230 | 7.0 | 18.2 | 0.00 | 0.00 | 0.00 | 33 | 1007.1 |
| 20260505183037 | 53 | 249 | 8.7 | 20.0 | 0.00 | 0.00 | 0.00 | 34 | 1007.1 |
| 20260505181537 | 53 | 222 | 12.2 | 18.2 | 0.00 | 0.00 | 0.00 | 35 | 1006.9 |
| 20260505180056 | 52 | 212 | 10.4 | 21.7 | 0.00 | 0.00 | 0.00 | 36 | 1007.0 |
| 20260505174550 | 52 | 243 | 7.8 | 20.0 | 0.00 | 0.00 | 0.00 | 35 | 1006.7 |
| 20260505173039 | 51 | 299 | 10.4 | 17.4 | 0.00 | 0.00 | 0.00 | 34 | 1006.7 |
| 20260505171533 | 52 | 266 | 11.3 | 16.5 | 0.00 | 0.00 | 0.00 | 34 | 1006.7 |
| 20260505170033 | 52 | 235 | 12.2 | 22.6 | 0.00 | 0.00 | 0.00 | 31 | 1006.8 |
| 20260505164531 | 51 | 284 | 9.6 | 21.7 | 0.00 | 0.00 | 0.00 | 34 | 1006.6 |
| 20260505163031 | 52 | 277 | 13.0 | 20.0 | 0.00 | 0.00 | 0.00 | 34 | 1006.4 |
| 20260505161535 | 52 | 359 | 8.7 | 20.0 | 0.00 | 0.00 | 0.00 | 34 | 1006.2 |
| 20260505153030 | 50 | 262 | 7.0 | 15.6 | 0.00 | 0.00 | 0.00 | 40 | 1006.3 |
| 20260505151531 | 50 | 279 | 12.2 | 22.6 | 0.00 | 0.00 | 0.00 | 38 | 1006.4 |
| 20260505114542 | 45 | 199 | 2.6 | 5.2 | 0.00 | 0.00 | 0.00 | 58 | 1006.5 |
| 20260505113039 | 45 | 257 | 4.3 | 7.0 | 0.00 | 0.00 | 0.00 | 54 | 1006.0 |
| 20260505111538 | 45 | 245 | 2.6 | 8.7 | 0.00 | 0.00 | 0.00 | 55 | 1005.6 |
| 20260505101535 | 46 | 278 | 2.6 | 7.0 | 0.00 | 0.00 | 0.00 | 60 | 1004.9 |
| 20260505100030 | 46 | 285 | 3.5 | 5.2 | 0.00 | 0.00 | 0.00 | 60 | 1004.3 |
| 20260505094526 | 46 | 299 | 5.2 | 10.4 | 0.00 | 0.00 | 0.00 | 58 | 1004.4 |
| 20260505093034 | 47 | 328 | 6.1 | 12.2 | 0.00 | 0.00 | 0.00 | 57 | 1003.6 |
| 20260505091525 | 47 | 305 | 6.1 | 11.3 | 0.00 | 0.00 | 0.00 | 56 | 1003.6 |
| 20260505090023 | 48 | 287 | 8.7 | 13.0 | 0.00 | 0.00 | 0.00 | 54 | 1004.0 |
| 20260505084522 | 47 | 279 | 6.1 | 9.6 | 0.00 | 0.00 | 0.00 | 55 | 1003.7 |
| 20260505083023 | 47 | 305 | 7.0 | 9.6 | 0.00 | 0.00 | 0.00 | 53 | 1003.2 |
| 20260505081515 | 48 | 315 | 7.0 | 10.4 | 0.00 | 0.00 | 0.00 | 54 | 1002.7 |
| 20260505080011 | 48 | 308 | 9.6 | 13.0 | 0.00 | 0.00 | 0.00 | 53 | 1002.4 |
| 20260505074508 | 49 | 310 | 9.6 | 19.1 | 0.00 | 0.00 | 0.00 | 52 | 1002.1 |
| 20260505073005 | 50 | 305 | 13.0 | 20.9 | 0.00 | 0.00 | 0.00 | 52 | 1001.8 |
| 20260505071501 | 51 | 327 | 11.3 | 17.4 | 0.00 | 0.00 | 0.00 | 54 | 1001.3 |
| 20260505070059 | 52 | 299 | 6.1 | 9.6 | 0.00 | 0.00 | 0.00 | 52 | 1001.2 |
| 20260505064555 | 52 | 267 | 4.3 | 8.7 | 0.00 | 0.00 | 0.00 | 50 | 1000.9 |
| 20260505063119 | 52 | 256 | 4.3 | 7.0 | 0.00 | 0.00 | 0.00 | 50 | 1000.9 |
| 20260505061615 | 53 | 280 | 3.5 | 8.7 | 0.00 | 0.00 | 0.00 | 49 | 1000.6 |
| 20260505060048 | 54 | 359 | 7.0 | 11.3 | 0.00 | 0.00 | 0.00 | 47 | 1000.5 |
| 20260505054544 | 55 | 268 | 7.8 | 16.5 | 0.00 | 0.00 | 0.00 | 46 | 1000.3 |
| 20260505053043 | 55 | 359 | 6.1 | 12.2 | 0.00 | 0.00 | 0.00 | 45 | 1000.0 |
| 20260505051556 | 56 | 257 | 7.0 | 13.0 | 0.00 | 0.00 | 0.00 | 43 | 999.9 |
| 20260505041532 | 59 | 261 | 7.8 | 13.9 | 0.00 | 0.00 | 0.00 | 41 | 999.4 |
| 20260505040032 | 60 | 278 | 7.8 | 15.6 | 0.00 | 0.00 | 0.00 | 38 | 999.3 |
| 20260505034531 | 60 | 359 | 9.6 | 16.5 | 0.00 | 0.00 | 0.00 | 38 | 999.2 |
| 20260505033030 | 61 | 267 | 10.4 | 16.5 | 0.00 | 0.00 | 0.00 | 37 | 999.0 |
| 20260505031529 | 61 | 249 | 9.6 | 17.4 | 0.00 | 0.00 | 0.00 | 36 | 999.0 |
| 20260505030030 | 62 | 276 | 13.0 | 20.9 | 0.00 | 0.00 | 0.00 | 36 | 998.7 |
| 20260505024527 | 63 | 268 | 12.2 | 20.9 | 0.00 | 0.00 | 0.00 | 36 | 998.2 |
| 20260505023027 | 64 | 299 | 13.9 | 22.6 | 0.00 | 0.00 | 0.00 | 36 | 998.0 |
| 20260505021527 | 65 | 256 | 13.0 | 21.7 | 0.00 | 0.00 | 0.00 | 37 | 998.1 |
| 20260505020025 | 67 | 251 | 13.9 | 23.5 | 0.00 | 0.00 | 0.00 | 36 | 997.8 |
| 20260505014525 | 68 | 243 | 11.3 | 17.4 | 0.00 | 0.00 | 0.00 | 35 | 997.4 |
| 20260505013025 | 69 | 256 | 14.8 | 23.5 | 0.00 | 0.00 | 0.00 | 35 | 996.9 |
| 20260505011525 | 70 | 260 | 13.9 | 24.3 | 0.00 | 0.00 | 0.00 | 36 | 996.4 |
| 20260505010024 | 71 | 240 | 7.0 | 13.0 | 0.00 | 0.00 | 0.00 | 42 | 995.4 |
| 20260505004524 | 72 | 228 | 9.6 | 16.5 | 0.00 | 0.00 | 0.00 | 44 | 994.7 |
| 20260505003024 | 72 | 228 | 8.7 | 15.6 | 0.00 | 0.00 | 0.00 | 43 | 994.4 |
| 20260505001522 | 73 | 211 | 9.6 | 14.8 | 0.00 | 0.00 | 0.00 | 41 | 994.1 |
| 20260505000021 | 74 | 212 | 7.0 | 9.6 | 0.00 | 0.00 | 0.00 | 41 | 993.9 |
| 20260504234523 | 74 | 213 | 5.2 | 9.6 | 0.00 | 0.00 | 0.00 | 41 | 994.0 |
| 20260504233019 | 74 | 359 | 7.0 | 12.2 | 0.00 | 0.00 | 0.00 | 40 | 994.1 |
| 20260504231518 | 75 | 257 | 4.3 | 8.7 | 0.00 | 0.00 | 0.00 | 42 | 994.2 |
| 20260504230016 | 75 | 200 | 4.3 | 11.3 | 0.00 | 0.00 | 0.00 | 42 | 994.3 |
| 20260504224514 | 74 | 173 | 7.8 | 19.1 | 0.00 | 0.00 | 0.00 | 44 | 994.9 |
| 20260504223013 | 77 | 201 | 11.3 | 19.1 | 0.00 | 0.00 | 0.00 | 35 | 994.8 |
| 20260504221513 | 78 | 187 | 13.0 | 18.2 | 0.00 | 0.00 | 0.00 | 32 | 994.5 |
| 20260504220012 | 78 | 201 | 13.9 | 21.7 | 0.00 | 0.00 | 0.00 | 32 | 994.7 |
| 20260504214510 | 77 | 258 | 12.2 | 22.6 | 0.00 | 0.00 | 0.00 | 32 | 994.9 |
| 20260504213013 | 79 | 203 | 14.8 | 21.7 | 0.00 | 0.00 | 0.00 | 31 | 995.0 |
| 20260504211507 | 78 | 212 | 13.0 | 25.2 | 0.00 | 0.00 | 0.00 | 31 | 995.0 |
| 20260504210005 | 78 | 229 | 16.5 | 26.9 | 0.00 | 0.00 | 0.00 | 30 | 995.4 |
| 20260504204503 | 79 | 204 | 12.2 | 24.3 | 0.00 | 0.00 | 0.00 | 31 | 995.6 |
| 20260504203002 | 78 | 216 | 14.8 | 22.6 | 0.00 | 0.00 | 0.00 | 30 | 995.7 |
| 20260504201600 | 78 | 359 | 13.0 | 22.6 | 0.00 | 0.00 | 0.00 | 33 | 995.7 |
| 20260504201500 | 78 | 210 | 12.2 | 22.6 | 0.00 | 0.00 | 0.00 | 32 | 995.8 |
| 20260504200059 | 77 | 193 | 16.5 | 28.7 | 0.00 | 0.00 | 0.00 | 31 | 995.9 |
| 20260504194602 | 77 | 210 | 14.8 | 23.5 | 0.00 | 0.00 | 0.00 | 30 | 996.2 |
| 20260504193057 | 78 | 183 | 13.9 | 20.9 | 0.00 | 0.00 | 0.00 | 29 | 996.4 |
| 20260504191554 | 77 | 199 | 14.8 | 21.7 | 0.00 | 0.00 | 0.00 | 29 | 996.5 |
| 20260504190116 | 75 | 203 | 12.2 | 22.6 | 0.00 | 0.00 | 0.00 | 31 | 996.7 |